Location: *
(33.8649°S, 62.1526°E)
Time: 18:39:07
(UTC+00:00)

Cosmos 44 Rocket - Pass Details

Date: 05 December 2021
Orbit: 648 x 741 km, 65.1° (Epoch: 23 January)

Event Time Altitude Azimuth Distance (km) Brightness Sun altitude
Exits shadow 18:19:45 27° 258° (WSW) 1,275 4.9 -30.4°
Maximum altitude 18:20:46 29° 235° (SW) 1,206 4.9 -30.4°
Drops below altitude 10° 18:24:54 10° 174° (S) 2,096 6.5 -30.7°
Sets 18:27:31 0° 162° (SSE) 3,026 7.3 -30.9°
